Regional Weather Roundup
Issued by NWS Huntsville, AL

Home | Current Version | Previous Version | Text Only | Print | Product List | Glossary On
Versions: 1 2 3 4 5 6 7 8 9 10 11 12 13 14 15 16 17 18 19 20 21 22 23 24 25 26 27 28 29 30 31 32 33 34 35 36 37 38 39 40 41 42 43 44 45 46 47 48 49 50
000
ASUS44 KHUN 090110
RWRHUN

WEATHER ROUNDUP FOR THE TENNESSEE VALLEY
NATIONAL WEATHER SERVICE HUNTSVILLE AL
700 PM CST MON FEB 08 2016

ALZ001>004-090200-
NORTHWEST ALABAMA

CITY           SKY/WX    TMP DP  RH WIND       PRES   REMARKS
COURTLAND HCN    N/A     39 N/A N/A W16         N/A  WCI  30
RUSSELLVILLE     N/A     39 N/A N/A MISG        N/A
SHOALS AIRPORT CLOUDY    39  22  50 NW20      29.93R WCI  29
SHOALS TVA RES   N/A     39 N/A N/A MISG        N/A
$$

ALZ005>007-016-090200-
NORTH CENTRAL ALABAMA

CITY           SKY/WX    TMP DP  RH WIND       PRES   REMARKS
CULLMAN AG STN   N/A     39 N/A N/A NW13        N/A  WCI  32
DECATUR AP     CLOUDY    38  22  52 W18G26    29.91R WCI  28
HUNTSVILLE AP  CLOUDY    40  20  44 NW13      29.90R WCI  32
HUN NWS/UAH      N/A     38  18  44 W14         N/A  WCI  30
MERIDIANVILLE  CLOUDY    37  19  48 W14G20    29.90R WCI  29
REDSTONE ARSN  CLOUDY    39  21  49 NW15G21   29.90R WCI  30
VINEMONT AP    MOCLDY    37  20  49 W9        29.92R WCI  30
$$

ALZ008>010-090200-
NORTHEAST ALABAMA

CITY           SKY/WX    TMP DP  RH WIND       PRES   REMARKS
ALBERTVILLE    CLOUDY    37  27  65 W14       29.87S WCI  29
FORT PAYNE     CLOUDY    36  21  55 W8        29.87R WCI  29
SCOTTSBORO AP  CLOUDY    39  19  45 W9G16     29.89S WCI  33
SCOTTSBORO HCN   N/A     39 N/A N/A MISG        N/A
VALLEY HEAD      N/A     36 N/A N/A MISG        N/A
$$

TNZ076-096-097-090200-
SOUTHEASTERN MIDDLE TENNESSEE

CITY           SKY/WX    TMP DP  RH WIND       PRES   REMARKS
TULLAHOMA      CLOUDY    32  25  74 W12       29.87R WCI  23
WINCHESTER     CLOUDY    34  25  69 NW6       29.87S WCI  29
$$

...SURROUNDING SITES...

CITY           SKY/WX    TMP DP  RH WIND       PRES   REMARKS
ATLANTA        MOCLDY    44  22  41 W16       29.80R
ANNISTON       CLOUDY    44  19  36 W17G26    29.89R
BIRMINGHAM     CLOUDY    42  20  41 NW13      29.94R
CHATTANOOGA    FLURRIES  36  22  56 NW13G20   29.87R WCI  27
DALTON         NOT AVBL
GADSDEN        CLOUDY    41  22  46 W16       29.91R
GOLDEN TRNGL   MOCLDY    39  21  48 W6        29.98R WCI  35
HALEYVILLE     CLOUDY    38  21  50 NW6G16    29.94R WCI  33
JACKSON TN     CLOUDY    36  21  54 NW15G24   29.96S WCI  27
MEMPHIS        CLOUDY    39  20  46 NW14G24   30.01R WCI  31
NASHVILLE      CLOUDY    32  24  72 W9G18     29.90R WCI  24
OXFORD MS      MOCLDY    37  19  48 NW17G29   30.02R WCI  28
ROME           CLOUDY    41  27  57 W14G23    29.86R
TUPELO         CLOUDY    42  18  37 W8G22     29.96S
TUSCALOOSA     CLOUDY    42  22  44 NW13G22   29.99R
$$

...GULF COAST WEATHER...

CITY           SKY/WX    TMP DP  RH WIND       PRES   REMARKS
GULFPORT       CLEAR     49  16  26 NW13G28   30.03R
PASCAGOULA     CLEAR     50  18  28 NW14G22   30.02R
MOBILE         PTCLDY    48  20  32 NW8G21    30.02R
GULF SHORES    CLEAR     50  20  30 NW15G26   29.98R
DESTIN         CLEAR     54  23  30 VRB5      29.93R
PANAMA CITY    PTCLDY    53  27  36 NW24      29.89R
APPALACHICOLA  CLOUDY    56  30  37 NW22G28   29.88R
$$





USA.gov is the U.S. government's official web portal to all federal, state and local government web resources and services.